FW8576 Weather Reports


Display with metric or nautical units.
time (UTC)temp
F
wind
direction
speed
MPH
gust
MPH
rain 1hr
in
rain 24hr
in
rain mn
in
humidity
%
barometer
mb
20260509115144 62 200 0.0 2.0 0.00 0.00 0.00 99 1017.2
20260509114642 62 151 0.0 2.0 0.00 0.00 0.00 99 1017.3
20260509114141 62 90 0.0 2.0 0.00 0.00 0.00 99 1017.1
20260509113639 61 74 0.0 1.0 0.00 0.00 0.00 99 1017.3
20260509113136 61 66 1.0 2.0 0.00 0.00 0.00 99 1017.4
20260509112632 61 90 0.0 1.0 0.00 0.00 0.00 99 1017.5
20260509112130 61 75 0.0 0.0 0.00 0.00 0.00 99 1017.5
20260509111627 60 75 0.0 0.0 0.00 0.00 0.00 99 1017.4
20260509111123 61 81 0.0 0.0 0.00 0.00 0.00 99 1017.5
20260509110621 60 81 0.0 0.0 0.00 0.00 0.00 99 1017.2
20260509110118 60 114 0.0 0.0 0.00 0.00 0.00 99 1017.2
20260509105616 60 114 1.0 1.0 0.00 0.00 0.00 99 1017.1
20260509105113 60 157 0.0 0.0 0.00 0.00 0.00 99 1017.3
20260509104610 60 157 0.0 0.0 0.00 0.00 0.00 99 1016.9
20260509104108 60 157 0.0 0.0 0.00 0.00 0.00 98 1017.0
20260509103604 59 157 0.0 0.0 0.00 0.00 0.00 98 1017.0
20260509103102 60 157 0.0 0.0 0.00 0.00 0.00 98 1017.0
20260509102559 60 157 0.0 0.0 0.00 0.00 0.00 98 1016.8
20260509102056 60 0 0.0 0.0 0.00 0.00 0.00 98 1016.7
20260509101552 59 0 0.0 0.0 0.00 0.00 0.00 98 1016.8
20260509101049 59 0 0.0 0.0 0.00 0.00 0.00 98 1016.7
20260509100546 60 0 0.0 1.0 0.00 0.00 0.00 98 1016.9
20260509100044 59 8 0.0 0.0 0.00 0.00 0.00 98 1016.7
20260509095540 60 8 0.0 0.0 0.00 0.00 0.00 98 1016.6
20260509095038 60 8 0.0 0.0 0.00 0.00 0.00 98 1016.7
20260509094534 60 8 0.0 0.0 0.00 0.00 0.00 98 1016.8
20260509094031 60 188 0.0 0.0 0.00 0.00 0.00 98 1016.4
20260509093530 60 188 0.0 0.0 0.00 0.00 0.00 98 1016.3
20260509093027 60 165 0.0 0.0 0.00 0.00 0.00 98 1016.1
20260509092525 60 165 0.0 0.0 0.00 0.00 0.00 97 1016.1
20260509092023 60 165 0.0 0.0 0.00 0.00 0.00 97 1015.9
20260509091520 60 165 1.0 2.0 0.00 0.00 0.00 97 1015.9
20260509091016 60 188 0.0 1.0 0.00 0.00 0.00 97 1015.9
20260509090514 60 145 0.0 1.0 0.00 0.00 0.00 97 1016.1
20260509090012 60 90 0.0 0.0 0.00 0.00 0.00 97 1016.2
20260509085508 61 90 0.0 1.0 0.00 0.00 0.00 97 1016.3
20260509085004 60 120 0.0 1.0 0.00 0.00 0.00 97 1016.0
20260509084502 61 151 0.0 1.0 0.00 0.00 0.00 96 1016.1
20260509083959 60 154 0.0 2.0 0.00 0.00 0.00 96 1016.0
20260509083456 60 81 0.0 2.0 0.00 0.00 0.00 96 1016.2
20260509082952 61 151 1.0 2.0 0.00 0.00 0.00 96 1016.2
20260509082450 60 98 0.0 1.0 0.00 0.00 0.00 95 1016.2
20260509081947 61 90 0.0 0.0 0.00 0.00 0.00 95 1016.2
20260509081444 61 81 0.0 0.0 0.00 0.00 0.00 95 1016.2
20260509080941 60 81 0.0 0.0 0.00 0.00 0.00 95 1016.2
20260509080439 61 74 0.0 1.0 0.00 0.00 0.00 95 1016.0
20260509075937 61 90 0.0 1.0 0.00 0.00 0.00 95 1016.0
20260509075434 61 180 0.0 0.0 0.00 0.00 0.00 94 1016.5
20260509074932 61 98 0.0 1.0 0.00 0.00 0.00 94 1016.3
20260509074429 61 82 0.0 0.0 0.00 0.00 0.00 94 1016.5
20260509073925 61 81 0.0 1.0 0.00 0.00 0.00 94 1016.0
20260509073422 61 82 0.0 0.0 0.00 0.00 0.00 93 1016.3
20260509072918 61 175 0.0 0.0 0.00 0.00 0.00 93 1016.4
20260509072415 61 165 0.0 1.0 0.00 0.00 0.00 93 1016.4
20260509071911 61 99 0.0 0.0 0.00 0.00 0.00 93 1016.5
20260509071408 61 99 0.0 0.0 0.00 0.00 0.00 92 1016.4
20260509070906 61 99 0.0 0.0 0.00 0.00 0.00 92 1016.8
20260509070402 61 99 0.0 0.0 0.00 0.00 0.00 92 1016.6
20260509065858 61 99 0.0 0.0 0.00 0.00 0.00 92 1016.6
20260509065355 61 99 0.0 0.0 0.00 0.00 0.00 92 1016.6
20260509064850 62 180 0.0 0.0 0.00 0.00 0.00 92 1016.7
20260509064348 62 180 0.0 1.0 0.00 0.00 0.00 91 1016.8
20260509063846 61 165 0.0 0.0 0.00 0.00 0.00 91 1016.8
20260509063342 61 165 0.0 0.0 0.00 0.00 0.00 91 1016.7
20260509062839 61 90 0.0 0.0 0.00 0.00 0.00 91 1017.1
20260509062336 61 90 0.0 0.0 0.00 0.00 0.00 91 1017.0
20260509061833 62 90 0.0 0.0 0.00 0.00 0.00 91 1017.1
20260509061332 62 90 0.0 0.0 0.00 0.00 0.00 91 1017.3
20260509060828 61 90 0.0 0.0 0.00 0.00 0.00 91 1017.2
20260509060325 61 90 0.0 0.0 0.00 0.00 0.00 91 1017.3
20260509055820 61 90 0.0 0.0 0.00 0.00 0.00 91 1017.2
20260509055316 61 90 0.0 0.0 0.00 0.00 0.00 91 1017.5
20260509054813 61 90 0.0 0.0 0.00 0.00 0.00 91 1017.6
20260509054310 61 90 0.0 0.0 0.00 0.00 0.00 91 1017.7
20260509053808 62 90 0.0 0.0 0.00 0.00 0.00 91 1017.5
20260509053305 61 103 1.0 3.0 0.00 0.00 0.00 91 1018.0
20260509052803 61 285 0.0 2.0 0.00 0.00 0.00 91 1018.0
20260509052301 62 151 0.0 1.0 0.00 0.00 0.00 91 1017.6
20260509051758 62 352 0.0 0.0 0.00 0.00 0.00 91 1018.1
20260509051256 62 0 2.0 3.0 0.00 0.00 0.00 91 1018.1
20260509050752 61 7 0.0 1.0 0.00 0.00 0.00 91 1017.9
20260509050249 62 145 0.0 0.0 0.00 0.00 0.00 92 1017.8
20260509045746 62 90 0.0 0.0 0.00 0.00 0.00 92 1018.0
20260509045243 62 114 0.0 2.0 0.00 0.00 0.00 92 1017.8
20260509044740 62 165 0.0 0.0 0.00 0.00 0.00 92 1018.6
20260509044238 62 352 0.0 0.0 0.00 0.00 0.00 92 1018.4
20260509043734 62 0 0.0 2.0 0.00 0.00 0.00 92 1018.5
20260509043230 62 203 0.0 0.0 0.00 0.00 0.00 92 1018.5
20260509042726 62 203 0.0 0.0 0.00 0.00 0.00 92 1018.5
20260509042223 62 151 0.0 0.0 0.00 0.00 0.00 92 1018.4
20260509041719 62 151 0.0 0.0 0.00 0.00 0.00 92 1018.7
20260509041217 62 151 0.0 0.0 0.00 0.00 0.00 91 1018.7
20260509040715 62 151 0.0 0.0 0.00 0.00 0.00 91 1018.9
20260509040212 62 151 0.0 1.0 0.00 0.00 0.00 90 1018.4
20260509035708 62 352 0.0 0.0 0.00 0.00 0.00 90 1018.8
20260509035205 62 180 0.0 0.0 0.00 0.00 0.00 89 1018.7
20260509034702 62 188 0.0 0.0 0.00 0.00 0.00 89 1018.8
20260509034200 63 157 0.0 0.0 0.00 0.00 0.00 88 1018.7
20260509033657 63 157 0.0 0.0 0.00 0.00 0.00 88 1018.7
20260509033154 63 145 0.0 2.0 0.00 0.00 0.00 87 1018.7
20260509032651 62 0 0.0 0.0 0.00 0.00 0.00 86 1018.9
20260509032148 62 0 0.0 0.0 0.00 0.00 0.00 86 1018.9
20260509031645 63 0 0.0 0.0 0.00 0.00 0.00 86 1019.0
20260509031142 63 0 0.0 0.0 0.00 0.00 0.00 86 1019.1
20260509030641 63 0 0.0 2.0 0.00 0.00 0.00 86 1019.1
20260509030138 63 0 0.0 0.0 0.00 0.00 0.00 86 1018.9
20260509025634 63 0 0.0 0.0 0.00 0.00 0.00 85 1018.9
20260509025130 63 0 0.0 1.0 0.00 0.00 0.00 85 1018.7
20260509024625 63 0 0.0 0.0 0.00 0.00 0.00 85 1018.7
20260509024121 64 99 0.0 0.0 0.00 0.00 0.00 85 1018.5
20260509023620 64 99 0.0 0.0 0.00 0.00 0.00 84 1018.6
20260509023116 64 103 0.0 0.0 0.00 0.00 0.00 83 1018.6
20260509022612 65 81 0.0 0.0 0.00 0.00 0.00 82 1018.7
20260509022111 65 81 0.0 0.0 0.00 0.00 0.00 81 1018.7
20260509021607 64 81 0.0 0.0 0.00 0.00 0.00 80 1018.9
20260509021104 64 81 0.0 0.0 0.00 0.00 0.00 80 1018.8
20260509020603 64 81 0.0 0.0 0.00 0.00 0.00 80 1018.9
20260509020059 64 81 0.0 0.0 0.00 0.00 0.00 79 1019.1
20260509015558 65 81 0.0 0.0 0.00 0.00 0.00 79 1019.0
20260509015055 65 81 0.0 0.0 0.00 0.00 0.00 79 1018.9
20260509014551 65 81 0.0 0.0 0.00 0.00 0.00 78 1019.0
20260509014048 65 81 0.0 0.0 0.00 0.00 0.00 77 1018.9
20260509013545 65 81 0.0 0.0 0.00 0.00 0.00 77 1018.9
20260509013040 65 81 0.0 0.0 0.00 0.00 0.00 76 1018.6
20260509012537 65 81 0.0 0.0 0.00 0.00 0.00 75 1018.8
20260509012034 66 81 0.0 0.0 0.00 0.00 0.00 75 1019.0
20260509011532 66 98 0.0 2.0 0.00 0.00 0.00 75 1018.6
20260509011029 66 172 0.0 0.0 0.00 0.00 0.00 75 1018.9
20260509010527 66 172 0.0 0.0 0.00 0.00 0.00 74 1018.8
20260509010023 66 173 0.0 1.0 0.00 0.00 0.00 73 1018.7
20260509005521 66 8 0.0 0.0 0.00 0.00 0.00 73 1018.8
20260509005021 66 352 0.0 0.0 0.00 0.00 0.00 73 1018.6
20260509004518 67 188 0.0 0.0 0.00 0.00 0.00 72 1018.4
20260509004015 67 188 0.0 0.0 0.00 0.00 0.00 71 1018.5
20260509003514 68 188 0.0 0.0 0.00 0.00 0.00 70 1018.4
20260509003010 68 180 0.0 2.0 0.00 0.00 0.00 69 1018.2
20260509002508 68 203 1.0 1.0 0.00 0.00 0.00 69 1018.5
20260509002005 68 206 0.0 2.0 0.00 0.00 0.00 68 1018.7
20260509001502 68 180 0.0 2.0 0.00 0.00 0.00 68 1018.5
20260509000958 68 180 2.0 2.0 0.00 0.00 0.00 66 1018.4
20260509000457 68 250 0.0 3.0 0.00 0.00 0.00 67 1018.8
20260508235952 68 261 0.0 2.0 0.00 0.00 0.00 68 1018.2
20260508235450 69 168 0.0 1.0 0.00 0.00 0.00 67 1018.0
20260508234946 69 228 0.0 2.0 0.00 0.00 0.00 67 1018.0
20260508234443 69 176 0.0 2.0 0.00 0.00 0.00 66 1017.8
20260508233941 69 200 0.0 2.0 0.00 0.00 0.00 66 1018.0
20260508233440 69 143 2.0 3.0 0.00 0.00 0.00 65 1018.1
20260508232936 69 188 0.0 3.0 0.00 0.00 0.00 64 1018.1
20260508232434 69 150 2.0 2.0 0.00 0.00 0.00 65 1018.2
20260508231931 70 192 2.0 4.0 0.00 0.00 0.00 64 1018.2
20260508231428 69 209 0.0 3.0 0.00 0.00 0.00 64 1018.1
20260508230925 70 259 2.0 3.0 0.00 0.00 0.00 64 1018.4
20260508230421 70 262 1.0 2.0 0.00 0.00 0.00 63 1018.3
20260508225918 70 237 0.0 2.0 0.00 0.00 0.00 63 1018.2
20260508225415 70 90 0.0 2.0 0.00 0.00 0.00 61 1018.0
20260508224913 70 98 1.0 4.0 0.00 0.00 0.00 61 1018.1
20260508224410 71 151 2.0 3.0 0.00 0.00 0.00 61 1018.1
20260508223907 71 147 3.0 4.0 0.00 0.00 0.00 59 1017.9
20260508223405 71 127 0.0 5.0 0.00 0.00 0.00 59 1018.0
20260508222902 71 153 0.0 3.0 0.00 0.00 0.00 59 1018.0
20260508222359 71 180 1.0 5.0 0.00 0.00 0.00 59 1018.1
20260508221856 71 106 1.0 4.0 0.00 0.00 0.00 59 1018.1
20260508221351 71 216 0.0 3.0 0.00 0.00 0.00 60 1018.2
20260508220848 71 225 2.0 5.0 0.00 0.00 0.00 59 1018.0
20260508220344 72 174 3.0 4.0 0.00 0.00 0.00 59 1018.2
20260508215841 72 191 0.0 5.0 0.00 0.00 0.00 57 1018.4
20260508215338 72 142 2.0 4.0 0.00 0.00 0.00 57 1018.4
20260508214835 72 196 4.0 4.0 0.00 0.00 0.00 57 1018.0
20260508214332 72 147 3.0 5.0 0.00 0.00 0.00 57 1018.2
20260508213828 72 229 3.0 5.0 0.00 0.00 0.00 56 1018.2
20260508213325 72 206 1.0 5.0 0.00 0.00 0.00 56 1018.0
20260508212821 72 144 3.0 4.0 0.00 0.00 0.00 55 1018.1
20260508212318 73 174 0.0 3.0 0.00 0.00 0.00 55 1018.1
20260508211814 73 151 0.0 4.0 0.00 0.00 0.00 55 1018.3
20260508211309 73 90 0.0 3.0 0.00 0.00 0.00 53 1017.9
20260508210808 73 180 3.0 4.0 0.00 0.00 0.00 52 1018.1
20260508210304 74 192 0.0 2.0 0.00 0.00 0.00 55 1018.0
20260508205801 74 229 3.0 6.0 0.00 0.00 0.00 54 1018.2
20260508205257 74 180 0.0 3.0 0.00 0.00 0.00 53 1018.1
20260508204753 75 221 0.0 5.0 0.00 0.00 0.00 53 1018.0
20260508204250 74 223 4.0 7.0 0.00 0.00 0.00 53 1017.9
20260508203746 74 240 0.0 4.0 0.00 0.00 0.00 51 1018.3
20260508203243 75 228 2.0 7.0 0.00 0.00 0.00 51 1017.9
20260508202738 76 220 0.0 5.0 0.00 0.00 0.00 51 1018.3
20260508202236 75 270 0.0 4.0 0.00 0.00 0.00 52 1018.1
20260508201733 75 202 2.0 3.0 0.00 0.00 0.00 50 1018.3
20260508201229 75 197 3.0 5.0 0.00 0.00 0.00 52 1018.3
20260508200726 74 33 2.0 3.0 0.00 0.00 0.00 50 1018.5
20260508200222 73 259 2.0 3.0 0.00 0.00 0.00 50 1018.6
20260508195719 74 225 4.0 6.0 0.00 0.00 0.00 49 1018.5
20260508195215 75 192 3.0 7.0 0.00 0.00 0.00 53 1018.5
20260508194712 76 203 0.0 8.0 0.00 0.00 0.00 51 1018.6
20260508194209 76 245 0.0 4.0 0.00 0.00 0.00 49 1018.6
20260508193706 76 237 8.0 10.0 0.00 0.00 0.00 48 1018.7
20260508193203 75 203 1.0 5.0 0.00 0.00 0.00 48 1019.1
20260508192659 76 234 0.0 2.0 0.00 0.00 0.00 48 1018.9
20260508192156 76 19 0.0 3.0 0.00 0.00 0.00 48 1018.9
20260508191654 77 170 3.0 4.0 0.00 0.00 0.00 51 1018.7
20260508191150 76 12 0.0 6.0 0.00 0.00 0.00 49 1019.1
20260508190648 75 142 2.0 5.0 0.00 0.00 0.00 50 1019.2
20260508190144 75 97 3.0 7.0 0.00 0.00 0.00 53 1019.1
20260508185641 76 253 0.0 6.0 0.00 0.00 0.00 54 1019.0
20260508185138 75 247 2.0 5.0 0.00 0.00 0.00 50 1019.1
20260508184635 75 69 0.0 2.0 0.00 0.00 0.00 52 1019.5
20260508184132 73 192 3.0 4.0 0.00 0.00 0.00 51 1019.9
20260508183629 74 246 3.0 8.0 0.00 0.00 0.00 52 1019.5
20260508183125 75 297 2.0 3.0 0.00 0.00 0.00 50 1019.7
20260508182621 75 253 3.0 5.0 0.00 0.00 0.00 54 1020.0
20260508182118 74 180 0.0 9.0 0.00 0.00 0.00 54 1019.9
20260508181613 73 199 2.0 4.0 0.00 0.00 0.00 52 1020.0
20260508181111 73 270 2.0 4.0 0.00 0.00 0.00 55 1019.9
20260508180607 75 152 6.0 6.0 0.00 0.00 0.00 53 1019.9
20260508180104 75 166 5.0 10.0 0.00 0.00 0.00 51 1019.9
20260508175601 76 12 0.0 2.0 0.00 0.00 0.00 53 1020.1
20260508175058 75 149 0.0 8.0 0.00 0.00 0.00 51 1020.3
20260508174555 74 209 6.0 7.0 0.00 0.00 0.00 49 1020.0
20260508174052 73 321 3.0 9.0 0.00 0.00 0.00 51 1020.0
20260508173549 74 285 1.0 2.0 0.00 0.00 0.00 50 1019.9
20260508173045 73 221 2.0 5.0 0.00 0.00 0.00 52 1020.1
20260508172542 73 67 0.0 5.0 0.00 0.00 0.00 50 1020.2
20260508172039 74 150 3.0 4.0 0.00 0.00 0.00 51 1020.5
20260508171535 73 200 1.0 5.0 0.00 0.00 0.00 52 1020.8
20260508171032 73 228 2.0 5.0 0.00 0.00 0.00 53 1020.9
20260508170529 73 232 4.0 5.0 0.00 0.00 0.00 51 1020.9
20260508170026 73 283 3.0 6.0 0.00 0.00 0.00 50 1020.8
20260508165523 73 254 2.0 4.0 0.00 0.00 0.00 52 1020.8
20260508165020 74 90 4.0 4.0 0.00 0.00 0.00 51 1020.9
20260508164517 72 320 2.0 9.0 0.00 0.00 0.00 54 1021.2
20260508164014 72 120 1.0 3.0 0.00 0.00 0.00 52 1021.1
20260508163511 71 215 1.0 5.0 0.00 0.00 0.00 53 1021.8
20260508163007 73 188 0.0 4.0 0.00 0.00 0.00 53 1021.3
20260508162504 72 66 2.0 3.0 0.00 0.00 0.00 53 1021.7
20260508162001 71 66 3.0 5.0 0.00 0.00 0.00 52 1021.6
20260508161458 71 62 0.0 5.0 0.00 0.00 0.00 52 1021.5
20260508160955 71 59 0.0 3.0 0.00 0.00 0.00 51 1021.5
20260508160454 70 180 1.0 5.0 0.00 0.00 0.00 53 1021.6
20260508155950 71 66 0.0 3.0 0.00 0.00 0.00 53 1021.7
20260508155447 70 23 1.0 11.0 0.00 0.00 0.00 54 1021.8
20260508154944 71 102 3.0 8.0 0.00 0.00 0.00 53 1021.7
20260508154442 70 137 4.0 6.0 0.00 0.00 0.00 53 1021.6
20260508153938 71 225 3.0 4.0 0.00 0.00 0.00 53 1021.7
20260508153435 71 282 2.0 6.0 0.00 0.00 0.00 51 1021.7
20260508152931 71 70 2.0 2.0 0.00 0.00 0.00 53 1021.9
20260508152428 70 108 5.0 5.0 0.00 0.00 0.00 51 1021.9
20260508151925 70 145 1.0 3.0 0.00 0.00 0.00 52 1022.1
20260508151422 69 164 3.0 6.0 0.00 0.00 0.00 53 1021.9
20260508150918 70 154 0.0 6.0 0.00 0.00 0.00 53 1021.9
20260508150415 70 129 3.0 6.0 0.00 0.00 0.00 53 1022.1
20260508145910 71 70 4.0 9.0 0.00 0.00 0.00 53 1021.9
20260508145407 70 97 1.0 7.0 0.00 0.00 0.00 55 1022.1
20260508144904 70 63 0.0 7.0 0.00 0.00 0.00 53 1022.0
20260508144402 70 125 2.0 7.0 0.00 0.00 0.00 55 1022.2
20260508143859 70 113 3.0 4.0 0.00 0.00 0.00 53 1022.3
20260508143356 70 64 3.0 5.0 0.00 0.00 0.00 54 1022.2
20260508142853 69 90 0.0 5.0 0.00 0.00 0.00 53 1022.1
20260508142350 70 180 3.0 5.0 0.00 0.00 0.00 55 1022.2
20260508141846 70 42 3.0 6.0 0.00 0.00 0.00 58 1022.1
20260508141343 69 156 2.0 5.0 0.00 0.00 0.00 57 1022.2
20260508140841 69 117 2.0 6.0 0.00 0.00 0.00 58 1022.2
20260508140337 68 37 2.0 9.0 0.00 0.00 0.00 58 1022.1
20260508135833 68 90 6.0 7.0 0.00 0.00 0.00 57 1022.3
20260508135330 69 74 3.0 5.0 0.00 0.00 0.00 58 1022.5
20260508134826 68 90 5.0 6.0 0.00 0.00 0.00 59 1022.4
20260508134323 68 134 8.0 8.0 0.00 0.00 0.00 61 1022.3
20260508133819 68 186 3.0 4.0 0.00 0.00 0.00 65 1022.2
20260508133317 68 108 3.0 6.0 0.00 0.00 0.00 63 1022.2
20260508132814 67 148 2.0 5.0 0.00 0.00 0.00 68 1022.3
20260508132312 67 63 0.0 5.0 0.00 0.00 0.00 73 1022.2
20260508131808 66 159 0.0 5.0 0.00 0.00 0.00 72 1022.1
20260508131304 65 79 2.0 6.0 0.00 0.00 0.00 73 1021.9
20260508130800 65 81 2.0 5.0 0.00 0.00 0.00 74 1022.0
20260508130258 65 85 0.0 3.0 0.00 0.00 0.00 76 1021.6
20260508125754 64 120 0.0 6.0 0.00 0.00 0.00 75 1021.6
20260508125250 66 180 0.0 4.0 0.00 0.00 0.00 77 1021.9
20260508124749 66 155 0.0 4.0 0.00 0.00 0.00 80 1021.6
20260508124245 65 79 3.0 3.0 0.00 0.00 0.00 80 1021.6
20260508123743 65 90 0.0 4.0 0.00 0.00 0.00 79 1021.7
20260508123241 66 19 2.0 2.0 0.00 0.00 0.00 81 1021.2
20260508122737 65 99 0.0 3.0 0.00 0.00 0.00 85 1021.5
20260508122234 64 74 0.0 2.0 0.00 0.00 0.00 88 1021.5
20260508121731 63 66 0.0 0.0 0.00 0.00 0.00 92 1021.3
20260508121230 61 79 0.0 3.0 0.00 0.00 0.00 94 1021.2
20260508120727 61 90 0.0 0.0 0.00 0.00 0.00 95 1021.3
20260508120225 59 75 0.0 0.0 0.00 0.00 0.00 96 1021.0
20260508115722 59 75 0.0 0.0 0.00 0.00 0.00 97 1020.9